Regional Weather Roundup
Issued by NWS

Home | Current Version | Previous Version | Graphics & Text | Print | Product List | Glossary On
Versions: 1 2 3 4 5 6 7 8 9 10 11 12 13 14 15 16 17 18 19 20 21 22 23 24 25 26 27 28 29 30 31 32 33 34 35 36 37 38 39 40 41 42 43 44 45 46 47 48 49 50
000
ASUS43 KBIS 172010
RWRND

NORTH DAKOTA REGIONAL WEATHER ROUNDUP
NATIONAL WEATHER SERVICE BISMARCK ND
300 PM CDT WED SEP 17 2014

NOTE: "FAIR" INDICATES FEW OR NO CLOUDS BELOW 12,000 FEET WITH NO
SIGNIFICANT WEATHER AND/OR OBSTRUCTIONS TO VISIBILITY.


NDZ001>003-009>011-017-172100-
NORTHWEST NORTH DAKOTA

CITY           SKY/WX    TMP DP  RH WIND       PRES   REMARKS
WILLISTON      SUNNY     78  41  26 SE13      29.94S
MINOT          SUNNY     70  49  47 NE9       29.99S
MINOT AFB      SUNNY     67  50  54 NE12      29.99S
$$

NDZ018>021-031>035-040>046-172100-
SOUTHWEST NORTH DAKOTA

CITY           SKY/WX    TMP DP  RH WIND       PRES   REMARKS
BISMARCK       MOSUNNY   76  49  38 S7        29.97S
DICKINSON      CLOUDY    68  47  46 E14       29.95F
GARRISON         N/A     73  45  36 SE8       29.98S
HETTINGER ARPT PTSUNNY   71  48  43 SE8       29.97F
$$

NDZ004>008-012>016-024-026-027-054-172100-
NORTHEAST NORTH DAKOTA

CITY           SKY/WX    TMP DP  RH WIND       PRES   REMARKS
GRAND FORKS    MOSUNNY   64  50  60 N13       30.01S
GRND FRKS AFB  PTSUNNY   60  51  72 N10       30.03S
DEVILS LAKE    SUNNY     61  46  59 NE9       30.01F
$$

NDZ022-023-025-028>030-036>039-047>053-172100-
SOUTHEAST NORTH DAKOTA

CITY           SKY/WX    TMP DP  RH WIND       PRES   REMARKS
FARGO          SUNNY     73  49  42 N9        29.96S
JAMESTOWN      SUNNY     72  47  40 VRB3      29.97S
$$



USA.gov is the U.S. government's official web portal to all federal, state and local government web resources and services.